• In Hungary
  • List of Countries
  • For 7 days
  • Water Temperature
  • Satellite Maps
  • Weather Map
  • News
  • Weather Widgets
  • user-avatar
    Login

    Hourly Weather Orawka

    Today, 28 May, Monday

    Time Temperature Precipitation Wind Pressure Humidity
    00:00 +14°C° 0 mm 1 mps 707 mmHg 91%
    01:00 +14°C° 0 mm 1 mps 707 mmHg 91%
    02:00 +14°C° 0 mm 1 mps 707 mmHg 91%
    03:00 +13°C° 0 mm 1 mps 707 mmHg 91%
    04:00 +13°C° 0 mm 1 mps 706 mmHg 91%
    05:00 +15°C° 0 mm 1 mps 707 mmHg 86%
    06:00 +18°C° 0 mm 1 mps 707 mmHg 82%
    07:00 +20°C° 0 mm 1 mps 708 mmHg 77%
    08:00 +20°C° 0 mm 2 mps 708 mmHg 68%
    09:00 +23°C° 0 mm 2 mps 708 mmHg 60%
    10:00 +25°C° 0 mm 3 mps 709 mmHg 52%
    11:00 +25°C° 0 mm 3 mps 708 mmHg 50%
    12:00 +26°C° 0 mm 3 mps 708 mmHg 49%
    13:00 +26°C° 0 mm 3 mps 708 mmHg 48%
    14:00 +25°C° 0.2 mm 3 mps 708 mmHg 53%
    15:00 +25°C° 0.2 mm 3 mps 708 mmHg 59%
    16:00 +24°C° 0.2 mm 3 mps 707 mmHg 64%
    17:00 +21°C° 0.2 mm 3 mps 707 mmHg 70%
    18:00 +20°C° 0.2 mm 2 mps 707 mmHg 77%
    19:00 +18°C° 0.2 mm 2 mps 706 mmHg 83%
    20:00 +17°C° 0 mm 2 mps 706 mmHg 86%
    21:00 +16°C° 0 mm 2 mps 706 mmHg 89%
    22:00 +15°C° 0 mm 2 mps 706 mmHg 91%
    23:00 +14°C° 0 mm 2 mps 706 mmHg 92%

    Tomorrow, 29 May, Tuesday

    Time Temperature Precipitation Wind Pressure Humidity
    00:00 +14°C° 0 mm 1 mps 706 mmHg 92%
    01:00 +14°C° 0 mm 1 mps 706 mmHg 93%
    02:00 +13°C° 0 mm 1 mps 706 mmHg 93%
    03:00 +13°C° 0 mm 1 mps 706 mmHg 93%
    04:00 +13°C° 0 mm 1 mps 706 mmHg 93%
    05:00 +15°C° 0 mm 1 mps 706 mmHg 87%
    06:00 +18°C° 0 mm 1 mps 707 mmHg 81%
    07:00 +20°C° 0 mm 1 mps 707 mmHg 75%
    08:00 +21°C° 0 mm 2 mps 707 mmHg 67%
    09:00 +23°C° 0 mm 2 mps 707 mmHg 59%
    10:00 +25°C° 0 mm 3 mps 707 mmHg 51%
    11:00 +25°C° 0 mm 3 mps 707 mmHg 51%
    12:00 +25°C° 0 mm 3 mps 707 mmHg 50%
    13:00 +25°C° 0 mm 3 mps 707 mmHg 50%
    14:00 +25°C° 0.1 mm 3 mps 706 mmHg 52%
    15:00 +25°C° 0.1 mm 3 mps 706 mmHg 55%
    16:00 +24°C° 0.1 mm 3 mps 705 mmHg 57%
    17:00 +23°C° 0.1 mm 2 mps 705 mmHg 64%
    18:00 +20°C° 0.1 mm 2 mps 705 mmHg 70%
    19:00 +18°C° 0.1 mm 2 mps 704 mmHg 76%
    20:00 +17°C° 0 mm 2 mps 704 mmHg 79%
    21:00 +16°C° 0 mm 2 mps 704 mmHg 82%
    22:00 +14°C° 0 mm 1 mps 704 mmHg 85%
    23:00 +14°C° 0 mm 1 mps 704 mmHg 86%

    Day after tomorrow, 30 May, Wednesday

    Time Temperature Precipitation Wind Pressure Humidity
    00:00 +13°C° 0 mm 1 mps 704 mmHg 87%
    01:00 +13°C° 0 mm 1 mps 704 mmHg 88%
    02:00 +12°C° 0 mm 1 mps 703 mmHg 88%
    03:00 +12°C° 0 mm 1 mps 703 mmHg 88%
    04:00 +12°C° 0 mm 1 mps 703 mmHg 89%
    05:00 +14°C° 0 mm 1 mps 703 mmHg 82%
    06:00 +16°C° 0 mm 1 mps 704 mmHg 75%
    07:00 +20°C° 0 mm 1 mps 704 mmHg 68%
    08:00 +21°C° 0 mm 1 mps 704 mmHg 60%
    09:00 +23°C° 0 mm 1 mps 705 mmHg 53%
    10:00 +24°C° 0 mm 2 mps 705 mmHg 45%
    11:00 +25°C° 0 mm 1 mps 705 mmHg 44%
    12:00 +25°C° 0 mm 1 mps 704 mmHg 44%
    13:00 +25°C° 0 mm 1 mps 704 mmHg 43%
    14:00 +25°C° 0 mm 1 mps 704 mmHg 45%
    15:00 +25°C° 0 mm 1 mps 703 mmHg 47%
    16:00 +25°C° 0 mm 1 mps 703 mmHg 49%
    17:00 +23°C° 0.1 mm 1 mps 703 mmHg 57%
    18:00 +21°C° 0.1 mm 1 mps 702 mmHg 64%
    19:00 +20°C° 0.1 mm 1 mps 702 mmHg 72%
    20:00 +19°C° 0.1 mm 1 mps 702 mmHg 75%
    21:00 +16°C° 0.1 mm 1 mps 702 mmHg 79%
    22:00 +15°C° 0.1 mm 1 mps 702 mmHg 82%
    23:00 +15°C° 0 mm 1 mps 701 mmHg 83%

    31 May, Thursday

    Time Temperature Precipitation Wind Pressure Humidity
    00:00 +14°C° 0 mm 1 mps 701 mmHg 84%
    01:00 +14°C° 0 mm 1 mps 701 mmHg 85%
    02:00 +14°C° 0 mm 1 mps 701 mmHg 85%
    03:00 +14°C° 0 mm 1 mps 701 mmHg 85%
    04:00 +14°C° 0 mm 1 mps 700 mmHg 85%
    05:00 +16°C° 0 mm 1 mps 701 mmHg 79%
    06:00 +17°C° 0 mm 0 mps 701 mmHg 73%
    07:00 +19°C° 0 mm 0 mps 702 mmHg 66%
    08:00 +20°C° 0 mm 0 mps 702 mmHg 61%
    09:00 +22°C° 0 mm 0 mps 702 mmHg 56%
    10:00 +25°C° 0 mm 1 mps 702 mmHg 51%
    11:00 +25°C° 0.2 mm 1 mps 702 mmHg 52%
    12:00 +25°C° 0.2 mm 1 mps 702 mmHg 54%
    13:00 +25°C° 0.2 mm 1 mps 702 mmHg 56%
    14:00 +24°C° 0.9 mm 1 mps 701 mmHg 61%
    15:00 +24°C° 0.9 mm 1 mps 701 mmHg 67%
    16:00 +23°C° 0.9 mm 1 mps 701 mmHg 72%
    17:00 +22°C° 0.8 mm 1 mps 701 mmHg 76%
    18:00 +20°C° 0.8 mm 1 mps 701 mmHg 80%
    19:00 +19°C° 0.8 mm 1 mps 700 mmHg 84%
    20:00 +18°C° 0.3 mm 1 mps 701 mmHg 87%
    21:00 +18°C° 0.3 mm 1 mps 701 mmHg 89%
    22:00 +16°C° 0.3 mm 1 mps 701 mmHg 91%
    23:00 +15°C° 0 mm 1 mps 701 mmHg 93%

    1 June, Friday

    Time Temperature Precipitation Wind Pressure Humidity
    00:00 +15°C° 0 mm 2 mps 701 mmHg 95%
    01:00 +14°C° 0 mm 2 mps 701 mmHg 96%
    02:00 +14°C° 0 mm 2 mps 701 mmHg 96%
    03:00 +14°C° 0 mm 2 mps 701 mmHg 95%
    04:00 +13°C° 0 mm 3 mps 701 mmHg 95%
    05:00 +13°C° 0 mm 3 mps 702 mmHg 93%
    06:00 +13°C° 0 mm 3 mps 702 mmHg 90%
    07:00 +13°C° 0 mm 3 mps 703 mmHg 88%
    08:00 +14°C° 0 mm 4 mps 703 mmHg 81%
    09:00 +15°C° 0 mm 4 mps 703 mmHg 73%
    10:00 +17°C° 0 mm 4 mps 704 mmHg 66%
    11:00 +17°C° 0 mm 5 mps 704 mmHg 60%
    12:00 +19°C° 0 mm 5 mps 704 mmHg 55%
    13:00 +20°C° 0 mm 5 mps 704 mmHg 50%
    14:00 +19°C° 0 mm 5 mps 704 mmHg 51%
    15:00 +19°C° 0 mm 5 mps 704 mmHg 52%
    16:00 +19°C° 0 mm 5 mps 704 mmHg 53%
    17:00 +17°C° 0 mm 4 mps 704 mmHg 60%
    18:00 +15°C° 0 mm 4 mps 704 mmHg 66%
    19:00 +13°C° 0 mm 3 mps 704 mmHg 72%
    20:00 +12°C° 0 mm 3 mps 704 mmHg 77%
    21:00 +12°C° 0 mm 2 mps 705 mmHg 82%
    22:00 +9°C° 0 mm 2 mps 705 mmHg 88%
    23:00 +9°C° 0 mm 2 mps 705 mmHg 89%

    2 June, Saturday

    Time Temperature Precipitation Wind Pressure Humidity
    00:00 +8°C° 0 mm 2 mps 705 mmHg 91%
    01:00 +7°C° 0 mm 2 mps 705 mmHg 92%
    02:00 +8°C° 0 mm 1 mps 705 mmHg 92%
    03:00 +8°C° 0 mm 1 mps 705 mmHg 92%
    04:00 +7°C° 0 mm 1 mps 705 mmHg 92%
    05:00 +8°C° 0 mm 2 mps 706 mmHg 83%
    06:00 +10°C° 0 mm 2 mps 706 mmHg 73%
    07:00 +12°C° 0 mm 3 mps 707 mmHg 64%
    08:00 +13°C° 0 mm 3 mps 707 mmHg 59%
    09:00 +16°C° 0 mm 3 mps 707 mmHg 53%
    10:00 +17°C° 0 mm 4 mps 707 mmHg 48%
    11:00 +18°C° 0 mm 4 mps 707 mmHg 46%
    12:00 +18°C° 0 mm 4 mps 707 mmHg 45%
    13:00 +19°C° 0 mm 4 mps 707 mmHg 43%
    14:00 +18°C° 0 mm 4 mps 707 mmHg 45%
    15:00 +18°C° 0 mm 4 mps 707 mmHg 46%
    16:00 +18°C° 0 mm 4 mps 707 mmHg 48%
    17:00 +15°C° 0 mm 4 mps 707 mmHg 55%
    18:00 +14°C° 0 mm 3 mps 707 mmHg 63%
    19:00 +12°C° 0 mm 3 mps 707 mmHg 70%
    20:00 +10°C° 0 mm 2 mps 707 mmHg 76%
    21:00 +9°C° 0 mm 2 mps 707 mmHg 82%
    22:00 +8°C° 0 mm 1 mps 707 mmHg 88%
    23:00 +8°C° 0 mm 1 mps 707 mmHg 88%
    Show more